Regional Weather Roundup
Issued by NWS

Home | Current Version | Previous Version | Text Only | Print | Product List | Glossary On
Versions: 1 2 3 4 5 6 7 8 9 10 11 12 13 14 15 16 17 18 19 20 21 22 23 24 25 26 27 28 29 30 31 32 33 34 35 36 37 38 39 40 41 42 43 44 45 46 47 48 49 50
599
ASUS43 KLSX 172057
RWRMO

WEATHER SUMMARY FOR MISSOURI
NATIONAL WEATHER SERVICE SPRINGFIELD MO
300 PM CST TUE JAN 17 2017

NOTE: "FAIR" INDICATES FEW OR NO CLOUDS BELOW 12,000 FEET WITH NO
       SIGNIFICANT WEATHER AND/OR OBSTRUCTIONS TO VISIBILITY.
       CURRENT SKY AND/OR WEATHER CONDITIONS ARE NOT AVAILABLE FOR
       CHILLICOTHE AND FARMINGTON.

MOZ001>031-035>038-043-044-053-054-172200-
...NORTHERN AND WESTERN MISSOURI...

CITY           SKY/WX    TMP DP  RH WIND       PRES   REMARKS
KANSAS CTY INT CLOUDY    37  33  85 W8        30.10R
LEE`S SUMMIT   CLOUDY    38  34  85 W9        30.10S
ST JOSEPH      CLOUDY    37  35  92 W8        30.11R
CHILLICOTHE      N/A     38  35  89 VRB6      30.10R

$$
MOZ066>068-077>081-088>096-101>105-172200-
...SOUTHWEST MISSOURI...

CITY           SKY/WX    TMP DP  RH WIND       PRES   REMARKS
SPRINGFIELD    CLOUDY    39  34  82 W13       30.11S
JOPLIN         CLOUDY    39  36  89 W10       30.14S
BRANSON        CLOUDY    39  36  87 NW9       30.12R

$$
MOZ032>034-039>042-045>050-055>058-069>072-172200-
...CENTRAL MISSOURI...

CITY           SKY/WX    TMP DP  RH WIND       PRES   REMARKS
COLUMBIA       NOT AVBL
JEFFERSON CITY CLOUDY    40  36  86 W10       30.11R
ROLLA          CLOUDY    39  36  89 W13       30.06R
SEDALIA        CLOUDY    39  36  89 W9        30.12R
WARRENSBURG    CLOUDY    37  34  87 SW8       30.11R

$$
MOZ051-052-059>065-172200-
...EAST CENTRAL MISSOURI...

CITY           SKY/WX    TMP DP  RH WIND       PRES   REMARKS
ST LOUIS INTL  CLOUDY    45  37  73 W13       30.05R

$$
MOZ072>076-082>087-097>100-106>115-172200-
...SOUTH CENTRAL AND SOUTHEAST MISSOURI...

CITY           SKY/WX    TMP DP  RH WIND       PRES   REMARKS
CAPE GIRARDEAU CLOUDY    45  39  79 W10       30.07R
POPLAR BLUFF   CLOUDY    46  40  79 W7        30.10R
WEST PLAINS    CLOUDY    43  37  79 W8        30.09S

$$



USA.gov is the U.S. government's official web portal to all federal, state and local government web resources and services.